Погода в Нумеа

Новая Каледония     22°15′12″S   166°27′57″E
темп.,
°C
ветер,
м/с
пор.,
м/с
влажн.,
%
обл.,
%
осадки,
мм/ч
давл.,
гПа
погр.,
м
10 августа, ср
ср1023:00+18юз246144 0.0 1015802
02:00+18зюз34607 0.0 1014842
05:00+17зюз35648 0.0 1014766
08:00+19зюз46620 0.1 10161286
11:00+21юз57531 0.1 10161708
14:00+20юз675615 0.1 10151787
17:00+19ююз685978 0.5 10161245
20:00+19ююз6854100 0.0 10171242
11 августа, чт
чт1123:00+18ююз47574 0.1 10171084
02:00+18юз465349 0.0 10171070
05:00+19ююз5752100 0.0 10171203
08:00+19ююз686340 0.3 1019930
11:00+20ююз665492 0.7 10191834
14:00+20ююз675852 0.1 10171406
17:00+20ю675725 0.1 10171151
20:00+19ююв785456 0.1 10191165
12 августа, пт
пт1223:00+18юв4662100 0.1 1019965
02:00+19юв675983 0.0 1019984
05:00+18вюв466034 0.0 1019874
08:00+19вюв465749 0.0 10211452
11:00+21вюв675550 0.0 10201617
14:00+21вюв785528 0.0 10181528
17:00+20вюв58602 0.0 10191261
20:00+18всв46663 0.0 1021692
13 августа, сб
сб1323:00+18всв466927 0.0 1021418
02:00+17всв357299 0.0 1020388
05:00+18всв466973 0.0 1020590
08:00+20всв49635 0.0 10201093
11:00+23всв795399 0.0 10191616
14:00+23всв7856100 0.0 10181675
17:00+21всв696999 0.1 10171063
20:00+19всв4781100 0.2 1019437
14 августа, вс
вс1423:00+20всв51175100 0.3 1018700
02:00+19всв3582100 0.1 1017296
05:00+19всв3486100 0.8 1016264
08:00+20всв4686100 0.9 1017492
11:00+20всв4684100 1.6 1017506
14:00+22св487884 0.1 1014929
17:00+22св5108090 0.4 1013758
20:00+21св598392 0.1 1014712